Weather History for Madison, MN

Change the Weather History Date:

Thursday, October 27, 2011

  Actual Average (KAQP) Record (KAQP)
Temperature  
Mean Temperature 38 °F -  
Max Temperature 51 °F 49 °F 78 °F (1999)
Min Temperature 26 °F 31 °F 15 °F (1997)
Degree Days  
Heating Degree Days 26    
Moisture  
Dew Point 26 °F    
Average Humidity 69    
Maximum Humidity 100    
Minimum Humidity 19    
Precipitation  
Precipitation 0.00 in - - ()
Sea Level Pressure  
Sea Level Pressure 30.06 in    
Wind  
Wind Speed 6 mph (West)    
Max Wind Speed 9 mph    
Max Gust Speed -    
Visibility 10 miles    
Events      
Averages and records for this station are not official NWS values.
T = Trace of Precipitation, MM = Missing Value Source: NWS Daily Summary

Daily Weather History Graph

Daily Weather History Graph

Search for Another Location

Airport:

Trip Planner

Search our weather history database for the weather conditions in past years. The results will help you decide how hot, cold, wet, or windy it might be!

Date:

Astronomy

Oct. 27, 2011 Rise Set
Actual Time 7:55 AM CDT 6:20 PM CDT
Civil Twilight 7:25 AM CDT 6:50 PM CDT
Nautical Twilight 6:51 AM CDT 7:25 PM CDT
Astronomical Twilight 6:17 AM CDT 7:59 PM CDT
Moon 9:06 AM CDT (10/27) 6:44 PM CDT (10/27)
Length of Visible Light 11h 24m
Length of Day
10h 24m
New Moon, 1% of the Moon is Illuminated
Oct 27
New Moon
Nov 2
First Quarter
Nov 10
Full
Nov 18
Last Quarter
Nov 25
New

Hourly Weather History & Observations

Time (CDT) Temp. Windchill Dew Point Humidity Pressure Visibility Wind Dir Wind Speed Gust Speed Precip Events Conditions
12:14 AM 30.2 °F 24.3 °F 28.4 °F 93% 30.06 in 10.0 mi West 5.8 mph - N/A   Clear
12:33 AM 28.4 °F 22.2 °F 28.4 °F 100% 30.07 in 10.0 mi West 5.8 mph - N/A   Clear
12:54 AM 30.2 °F 23.4 °F 28.4 °F 93% 30.07 in 10.0 mi West 6.9 mph - N/A   Mostly Cloudy
1:13 AM 32.0 °F 26.4 °F 30.2 °F 93% 30.07 in 10.0 mi West 5.8 mph - N/A   Overcast
1:33 AM 32.0 °F 26.4 °F 30.2 °F 93% 30.06 in 10.0 mi West 5.8 mph - N/A   Mostly Cloudy
1:54 AM 33.8 °F 27.7 °F 30.2 °F 87% 30.07 in 10.0 mi West 6.9 mph - N/A   Overcast
2:14 AM 33.8 °F 27.7 °F 30.2 °F 87% 30.06 in 10.0 mi West 6.9 mph - N/A   Overcast
2:33 AM 33.8 °F 27.7 °F 30.2 °F 87% 30.06 in 10.0 mi West 6.9 mph - N/A   Overcast
3:13 AM 30.2 °F 21.9 °F 30.2 °F 100% 30.06 in 10.0 mi WNW 9.2 mph - N/A   Scattered Clouds
3:33 AM 30.2 °F 24.3 °F 28.4 °F 93% 30.05 in 10.0 mi West 5.8 mph - N/A   Clear
3:54 AM 30.2 °F 23.4 °F 28.4 °F 93% 30.06 in 10.0 mi WNW 6.9 mph - N/A   Clear
4:13 AM 28.4 °F 20.4 °F 28.4 °F 100% 30.06 in 10.0 mi West 8.1 mph - N/A   Clear
4:34 AM 28.4 °F 21.2 °F 28.4 °F 100% 30.06 in 10.0 mi WNW 6.9 mph - N/A   Scattered Clouds
4:53 AM 30.2 °F 23.4 °F 28.4 °F 93% 30.06 in 10.0 mi WNW 6.9 mph - N/A   Scattered Clouds
5:14 AM 28.4 °F 20.4 °F 28.4 °F 100% 30.07 in 10.0 mi West 8.1 mph - N/A   Clear
5:34 AM 28.4 °F 20.4 °F 28.4 °F 100% 30.07 in 10.0 mi WNW 8.1 mph - N/A   Clear
5:53 AM 28.4 °F 21.2 °F 28.4 °F 100% 30.07 in 10.0 mi WNW 6.9 mph - N/A   Clear
6:14 AM 28.4 °F 21.2 °F 26.6 °F 93% 30.07 in 10.0 mi West 6.9 mph - N/A   Clear
6:34 AM 28.4 °F 22.2 °F 28.4 °F 100% 30.08 in 10.0 mi West 5.8 mph - N/A   Clear
6:53 AM 28.4 °F 21.2 °F 28.4 °F 100% 30.08 in 10.0 mi West 6.9 mph - N/A   Clear
7:14 AM 28.4 °F 20.4 °F 28.4 °F 100% 30.07 in 10.0 mi WNW 8.1 mph - N/A   Clear
7:34 AM 28.4 °F 20.4 °F 28.4 °F 100% 30.07 in 10.0 mi West 8.1 mph - N/A   Clear
7:53 AM 26.6 °F 19.1 °F 26.6 °F 100% 30.08 in 10.0 mi WNW 6.9 mph - N/A   Clear
8:14 AM 26.6 °F 21.2 °F 26.6 °F 100% 30.09 in 10.0 mi WNW 4.6 mph - N/A   Clear
8:34 AM 26.6 °F - 26.6 °F 100% 30.08 in 10.0 mi Calm Calm - N/A   Clear
8:53 AM 28.4 °F 23.3 °F 26.6 °F 93% 30.08 in 10.0 mi West 4.6 mph - N/A   Clear
9:14 AM 30.2 °F - 30.2 °F 100% 30.07 in 10.0 mi Calm Calm - N/A   Clear
9:33 AM 33.8 °F 30.8 °F 32.0 °F 93% 30.07 in 10.0 mi WNW 3.5 mph - N/A   Clear
9:53 AM 35.6 °F 31.7 °F 33.8 °F 93% 30.07 in 10.0 mi NW 4.6 mph - N/A   Clear
10:14 AM 37.4 °F 33.8 °F 33.8 °F 87% 30.07 in 10.0 mi NW 4.6 mph - N/A   Clear
10:33 AM 39.2 °F 37.0 °F 35.6 °F 87% 30.07 in 10.0 mi NW 3.5 mph - N/A   Clear
10:53 AM 41.0 °F - 35.6 °F 81% 30.07 in 10.0 mi Calm Calm - N/A   Clear
11:14 AM 42.8 °F 41.1 °F 35.6 °F 76% 30.08 in 10.0 mi NW 3.5 mph - N/A   Clear
11:33 AM 44.6 °F 43.1 °F 33.8 °F 66% 30.08 in 10.0 mi WNW 3.5 mph - N/A   Clear
12:14 PM 46.4 °F 45.2 °F 32.0 °F 57% 30.08 in 10.0 mi WNW 3.5 mph - N/A   Clear
12:33 PM 46.4 °F 44.3 °F 32.0 °F 57% 30.08 in 10.0 mi West 4.6 mph - N/A   Clear
12:53 PM 48.2 °F - 30.2 °F 50% 30.07 in 10.0 mi Calm Calm - N/A   Clear
1:14 PM 48.2 °F - 28.4 °F 46% 30.07 in 10.0 mi SW 4.6 mph - N/A   Scattered Clouds
1:33 PM 50.0 °F - 28.4 °F 43% 30.06 in 10.0 mi West 3.5 mph - N/A   Scattered Clouds
1:53 PM 50.0 °F - 23.0 °F 35% 30.05 in 10.0 mi WSW 6.9 mph - N/A   Clear
2:14 PM 51.8 °F - 21.2 °F 30% 30.05 in 10.0 mi WNW 4.6 mph - N/A   Clear
2:33 PM 48.2 °F - 23.0 °F 37% 30.04 in 10.0 mi West 3.5 mph - N/A   Scattered Clouds
2:54 PM 50.0 °F - 21.2 °F 32% 30.04 in 10.0 mi West 4.6 mph - N/A   Scattered Clouds
3:14 PM 50.0 °F - 17.6 °F 28% 30.03 in 10.0 mi West 8.1 mph - N/A   Clear
3:33 PM 51.8 °F - 12.2 °F 21% 30.03 in 10.0 mi West 6.9 mph - N/A   Clear
3:54 PM 51.8 °F - 12.2 °F 21% 30.03 in 10.0 mi WNW 6.9 mph - N/A   Clear
4:13 PM 51.8 °F - 10.4 °F 19% 30.02 in 10.0 mi West 6.9 mph - N/A   Clear
4:33 PM 51.8 °F - 10.4 °F 19% 30.02 in 10.0 mi West 9.2 mph - N/A   Clear
4:54 PM 51.8 °F - 10.4 °F 19% 30.02 in 10.0 mi West 6.9 mph - N/A   Clear
5:13 PM 50.0 °F - 12.2 °F 22% 30.02 in 10.0 mi WSW 4.6 mph - N/A   Clear
5:33 PM 48.2 °F - 15.8 °F 27% 30.02 in 10.0 mi Calm Calm - N/A   Clear
5:54 PM 48.2 °F - 14.0 °F 25% 30.03 in 10.0 mi Calm Calm - N/A   Scattered Clouds
6:14 PM 48.2 °F - 15.8 °F 27% 30.03 in 10.0 mi Calm Calm - N/A   Scattered Clouds
6:33 PM 48.2 °F - 15.8 °F 27% 30.03 in 10.0 mi Calm Calm - N/A   Scattered Clouds
6:54 PM 46.4 °F - 17.6 °F 32% 30.04 in 10.0 mi Calm Calm - N/A   Clear
7:13 PM 42.8 °F - 17.6 °F 36% 30.04 in 10.0 mi Calm Calm - N/A   Clear
7:33 PM 41.0 °F 39.0 °F 19.4 °F 42% 30.05 in 10.0 mi South 3.5 mph - N/A   Clear
7:54 PM 41.0 °F - 19.4 °F 42% 30.05 in 10.0 mi Calm Calm - N/A   Clear
8:14 PM 39.2 °F 37.0 °F 21.2 °F 49% 30.04 in 10.0 mi South 3.5 mph - N/A   Clear
8:33 PM 39.2 °F - 21.2 °F 49% 30.04 in 10.0 mi Calm Calm - N/A   Clear
8:54 PM 35.6 °F 30.7 °F 24.8 °F 65% 30.03 in 10.0 mi South 5.8 mph - N/A   Clear
9:13 PM 35.6 °F 30.7 °F 23.0 °F 60% 30.03 in 10.0 mi South 5.8 mph - N/A   Clear
9:33 PM 35.6 °F 30.7 °F 23.0 °F 60% 30.03 in 10.0 mi SSE 5.8 mph - N/A   Clear
9:54 PM 33.8 °F 29.6 °F 23.0 °F 65% 30.03 in 10.0 mi South 4.6 mph - N/A   Clear
10:14 PM 33.8 °F 29.6 °F 23.0 °F 65% 30.03 in 10.0 mi South 4.6 mph - N/A   Clear
10:33 PM 32.0 °F 26.4 °F 21.2 °F 64% 30.03 in 10.0 mi South 5.8 mph - N/A   Clear
10:53 PM 30.2 °F 23.4 °F 23.0 °F 75% 30.02 in 10.0 mi South 6.9 mph - N/A   Clear
11:13 PM 32.0 °F 27.5 °F 24.8 °F 75% 30.02 in 10.0 mi South 4.6 mph - N/A   Scattered Clouds
11:34 PM 32.0 °F 27.5 °F 24.8 °F 75% 30.01 in 10.0 mi South 4.6 mph - N/A   Scattered Clouds
11:54 PM 33.8 °F 28.6 °F 24.8 °F 70% 30.01 in 10.0 mi South 5.8 mph - N/A   Mostly Cloudy